User: anonymous   Login
Location: Unspecified
(0.0000°N, 0.0000°E)
Time: 19:02:34
(UTC+00:00)
Language:

UKube-1 - Orbit

View from above orbital plane
View from above orbital plane
View from above satellite
View from above satellite

Ground track
Ground track

The orbit data is extracted from the following two-line orbital elements,

1 40074U 14037F   24053.50317485  .00006227  00000-0  62565-3 0  9991
2 40074  98.3408 336.5672 0005656  90.5607 269.6258 14.91639699521520
Epoch (UTC): 22 February 2024 12:04:34
Eccentricity: 0.0005656
inclination: 98.3408°
perigee height: 589 km
apogee height: 597 km
right ascension of ascending node: 336.5672°
argument of perigee: 90.5607°
revolutions per day: 14.91639699
mean anomaly at epoch: 269.6258°
orbit number at epoch: 52152

The dashed part of the orbit path shows where the satellite is in the earth's shadow,  

DLR